Terminal Aerodrome Forecast
Issued by NWS

Home | Current Version | Previous Version | Text Only | Print | Product List | Glossary On
Versions: 1 2 3 4 5 6 7 8 9 10 11 12 13 14 15 16 17 18 19 20 21 22 23 24
677
FTUS41 KGYX 190539
TAFHIE
TAF
KHIE 190539Z 1906/2006 00000KT P6SM BKN040
      TEMPO 1906/1908 5SM BR BKN025
     FM190800 00000KT 3SM BR OVC015
      TEMPO 1908/1912 OVC008
     FM191300 VRB03KT P6SM OVC025
     FM191700 26005KT P6SM BKN050=

USA.gov is the U.S. government's official web portal to all federal, state and local government web resources and services.